Wind_Speed
1 1 4 5 7 8 6 5 2 6 6 11 11 10 10 12 13 12 12 10 9 9 8 9 8 6 7 10 11 9 8 5 1 2 7 10 15 15 12 12 15 15 14 13 13 16 16 15 17 19 20 19 20 22 23 23 25 25 25 25 24 23 22 22 21 21 20 19 19 19 18 17 17 17 17 16 15 15 15 14 13 12 11 11 10 9 8 8 7 7 7 8 8 8 8 8 9
1 2 4 6 7 7 2 3 4 9 8 12 10 9 10 11 13 12 13 12 10 10 10 9 9 10 11 11 9 8 9 8 4 5 10 15 16 13 14 15 15 15 13 13 13 13 16 17 16 18 21 21 20 21 23 24 24 24 25 24 23 22 22 21 21 22 21 19 19 18 17 17 16 15 15 16 15 14 14 14 12 11 11 10 10 9 8 8 7 7 7 8 8 8 8 8 8
2 3 5 6 5 5 3 1 6 10 10 11 9 9 10 12 13 13 14 14 12 11 10 9 9 7 8 11 8 9 8 6 9 10 10 14 13 12 16 15 14 13 12 13 13 12 15 17 17 17 19 20 19 20 22 23 23 24 24 23 23 22 22 21 20 21 21 19 18 17 16 16 16 15 14 15 15 14 13 12 12 11 10 10 10 9 9 8 8 8 8 8 8 8 8 8 7
2 3 5 7 4 3 1 5 7 8 11 10 8 10 11 12 13 13 14 13 11 10 9 9 8 7 9 14 10 10 9 8 10 10 9 10 11 15 16 15 14 13 14 12 9 12 15 16 19 19 18 18 17 17 19 19 21 22 22 23 22 21 21 21 20 20 20 18 17 17 16 16 15 15 14 14 14 13 13 12 12 11 11 10 10 10 9 9 8 8 8 7 7 7 7 7 6
3 3 4 6 3 1 2 7 7 8 11 9 8 11 12 12 12 12 12 11 9 9 8 7 8 8 11 10 6 8 10 10 9 10 11 11 13 16 16 15 15 14 15 11 6 10 15 16 19 20 20 19 16 16 17 18 19 20 21 22 21 20 20 20 20 20 19 18 17 16 16 15 15 14 14 13 13 13 13 12 12 11 11 10 9 9 8 8 7 7 7 6 6 6 6 6 5
4 4 4 5 3 2 1 7 9 9 10 10 10 11 12 12 12 12 11 10 8 8 7 8 10 11 10 9 9 8 7 9 10 9 11 14 16 17 16 16 15 15 16 13 9 11 14 16 17 18 20 19 17 17 17 18 19 20 21 22 22 20 20 20 19 19 18 17 16 16 15 14 14 13 13 13 12 12 12 11 11 10 10 9 8 8 7 7 6 6 5 5 4 5 4 4 3
3 3 4 4 3 1 5 10 10 9 10 11 11 11 13 12 11 12 11 9 8 7 7 10 11 10 9 7 9 8 6 8 10 10 13 17 17 17 16 15 15 16 16 15 13 13 13 14 15 15 17 18 19 18 17 18 19 20 21 21 22 20 20 19 18 17 16 16 15 15 14 13 12 12 12 12 12 11 11 10 10 9 8 7 7 6 6 5 4 4 3 2 3 3 2 2 2
4 3 2 2 2 4 8 10 9 9 9 11 12 12 12 11 10 9 10 8 8 9 9 10 9 9 9 7 8 7 8 9 11 14 17 18 17 16 14 15 16 16 17 17 16 15 14 13 14 14 15 18 20 19 18 18 20 20 21 21 21 19 18 17 17 16 15 15 14 13 13 12 12 11 11 11 11 10 10 9 9 8 7 6 5 5 4 3 3 2 2 1 2 1 1 0 2
6 4 2 2 4 7 8 9 10 9 10 12 12 11 11 9 7 8 9 9 9 9 9 7 6 9 10 10 9 7 8 10 14 17 17 18 17 15 12 14 16 17 18 18 17 16 15 14 14 14 14 17 19 20 19 18 21 20 20 20 19 18 17 16 16 15 14 14 13 13 12 11 11 10 10 9 9 9 8 8 7 6 5 4 3 3 2 2 1 1 1 1 1 1 1 2 3
5 2 2 1 5 8 8 8 9 9 11 11 11 11 10 8 7 9 10 11 10 8 8 8 8 11 12 12 9 7 10 13 17 18 17 17 17 15 13 13 14 16 16 16 18 17 17 16 15 14 13 15 18 20 20 19 19 20 20 19 18 18 16 15 14 14 13 13 12 12 11 10 9 9 9 9 9 8 7 7 6 5 5 4 2 1 1 1 1 2 2 2 2 2 2 3 5
3 2 2 1 5 7 7 8 8 9 10 10 11 10 8 8 9 10 11 11 9 10 10 9 11 13 12 10 7 9 13 15 18 19 18 17 15 15 15 14 14 15 15 14 15 16 16 16 15 14 12 12 14 17 19 19 17 18 19 16 16 16 15 14 13 13 13 12 12 11 10 9 8 8 8 8 8 7 6 6 5 4 4 3 2 1 0 2 4 4 4 5 4 4 4 5 6
2 1 2 3 5 6 8 9 9 9 10 9 9 8 7 7 9 10 11 10 10 11 9 7 10 10 10 9 6 10 15 15 16 19 18 16 15 14 14 15 14 15 15 13 13 14 15 15 16 15 14 13 13 13 16 17 16 17 17 16 15 15 13 13 12 12 11 11 11 10 9 8 7 8 8 7 7 6 5 4 3 2 2 1 1 1 2 4 6 5 6 7 7 6 6 7 7
2 1 1 4 4 5 8 9 9 9 8 8 8 8 6 5 7 9 9 11 9 9 7 8 11 9 9 9 7 11 14 15 16 17 17 16 15 14 13 13 14 15 15 14 14 15 16 17 17 16 16 15 14 13 14 15 15 16 15 15 15 14 13 13 12 11 10 9 9 8 8 8 8 7 7 6 6 4 3 2 3 2 2 3 2 4 5 7 9 8 9 9 9 9 8 8 8
2 2 0 4 4 4 7 8 8 8 6 7 8 8 6 5 7 7 8 10 7 8 11 9 9 8 10 9 7 9 13 17 16 16 16 15 15 15 13 13 13 14 15 15 15 16 16 16 16 17 17 16 15 15 15 15 15 14 14 14 14 14 14 12 11 11 9 8 7 7 7 7 7 6 5 5 4 3 3 3 3 3 3 5 5 6 6 9 11 11 11 11 11 11 10 9 9
3 2 1 4 5 5 5 5 7 7 6 7 9 8 7 6 6 6 6 7 8 10 10 7 5 4 10 11 8 11 16 19 17 16 16 14 15 14 13 13 13 12 12 13 14 15 15 15 15 16 15 14 15 14 14 15 14 13 14 14 13 13 13 12 11 10 9 7 7 7 8 8 7 7 7 6 4 4 4 4 4 4 4 6 8 8 8 11 13 13 13 12 13 12 11 10 9
3 3 2 4 5 6 4 3 4 6 7 8 9 8 9 7 5 6 6 6 11 11 5 4 3 1 7 11 12 17 20 21 19 17 16 14 14 13 13 13 13 12 11 11 13 14 14 14 15 15 14 13 14 13 12 13 13 12 13 13 11 11 11 10 10 10 9 8 8 8 8 6 3 4 5 4 4 5 6 5 6 6 6 7 9 10 10 12 14 13 13 12 12 12 11 10 9
2 4 3 4 4 5 6 4 2 6 8 10 10 8 8 9 6 7 6 9 12 10 3 3 3 2 6 12 19 23 21 20 19 18 16 15 14 13 13 12 13 12 11 11 11 12 12 12 13 14 13 12 13 13 12 12 12 12 11 11 10 10 9 8 8 8 8 8 8 7 7 5 4 5 4 3 4 6 7 6 7 8 7 8 10 11 11 13 14 14 13 13 12 12 11 10 8
3 4 3 4 4 6 6 5 5 6 9 10 10 7 7 8 8 7 7 10 10 9 6 6 6 7 12 18 24 24 21 20 18 19 17 15 14 14 14 13 13 12 12 12 11 11 11 12 12 11 10 10 9 10 10 11 12 12 11 10 10 9 8 8 8 8 8 9 7 7 9 9 8 7 5 5 4 5 8 8 8 8 9 9 10 12 12 13 14 14 14 14 12 11 11 8 7
4 2 3 4 6 7 6 6 5 4 9 10 9 6 6 7 8 6 4 8 9 7 8 10 12 12 15 21 24 23 22 20 18 18 17 15 14 14 15 14 14 13 13 13 13 12 11 11 11 10 9 8 8 8 8 8 10 11 10 10 9 9 9 10 10 9 10 10 7 8 10 10 9 8 6 5 5 6 9 10 10 10 10 11 11 12 13 14 14 14 14 14 12 11 9 7 6
3 3 3 6 7 8 5 5 5 4 9 11 9 7 6 7 6 3 2 6 7 6 8 10 13 14 16 19 21 22 22 20 19 18 17 16 14 14 14 14 14 14 13 13 13 13 12 11 12 12 10 11 9 8 8 6 8 9 8 8 8 9 10 10 11 12 13 10 8 11 11 9 9 10 9 8 8 9 11 12 12 10 10 12 12 11 11 12 12 12 12 13 11 8 7 7 6
2 2 5 9 6 8 6 5 6 6 9 10 9 8 8 7 4 2 1 4 4 6 7 9 14 17 18 19 20 21 20 19 19 17 17 16 14 14 13 13 13 13 13 13 13 13 12 12 13 13 12 12 10 9 8 6 7 8 8 8 9 10 10 9 10 12 12 11 11 13 12 11 11 11 11 11 10 12 12 12 12 10 10 10 10 11 10 10 10 9 10 9 8 7 7 7 6
2 4 8 8 4 8 8 6 8 8 9 10 9 8 9 8 6 6 4 3 5 6 6 11 15 17 18 19 19 19 19 19 18 17 17 16 15 14 13 13 12 13 13 13 13 13 13 12 12 12 12 11 10 10 9 7 7 8 9 11 11 11 11 11 10 10 10 12 13 12 12 13 12 11 11 11 11 12 11 11 11 9 10 10 9 10 10 9 9 9 9 8 8 8 8 7 7
3 6 7 6 5 9 9 8 10 9 10 9 8 8 9 9 9 10 10 10 9 9 10 14 16 17 18 19 18 18 17 17 18 17 16 16 16 15 14 13 13 13 13 13 13 12 13 13 11 11 10 10 10 9 9 8 8 9 10 10 11 11 10 10 10 10 10 11 11 11 12 12 11 11 11 11 11 11 10 10 10 10 10 10 10 10 10 9 9 9 9 8 8 8 8 8 7
3 8 7 6 9 11 9 8 10 10 11 10 9 8 8 9 10 10 12 13 12 13 14 16 17 18 18 17 16 16 16 16 16 16 15 15 16 15 14 14 13 13 13 13 13 12 13 13 12 11 10 10 10 10 9 9 8 9 9 9 10 10 10 10 10 9 9 9 10 10 12 12 12 12 11 10 10 9 10 10 10 11 11 11 10 9 9 9 8 8 9 8 8 8 8 8 8
6 9 8 8 10 11 10 9 11 13 11 10 11 10 10 12 12 11 12 12 13 14 14 15 16 16 16 15 15 14 14 15 15 15 14 13 14 14 14 14 14 14 14 14 14 13 13 14 14 13 12 12 11 11 11 10 9 9 9 9 9 10 11 12 10 10 9 9 9 9 11 13 12 12 12 11 10 9 9 9 10 11 13 12 11 10 9 9 9 8 8 9 9 9 8 8 8
7 10 10 10 12 11 10 10 12 13 9 10 12 13 13 13 11 11 11 12 13 14 15 14 15 15 14 13 14 13 13 14 14 14 13 11 13 14 13 13 13 14 14 15 14 13 13 14 14 14 13 12 11 11 11 11 10 10 10 10 9 10 11 11 10 10 10 10 10 9 11 14 13 14 14 12 10 9 8 9 9 11 12 12 12 11 11 11 10 9 8 8 9 10 10 9 9
9 12 12 12 13 10 10 11 13 12 10 11 12 13 12 8 6 8 10 11 13 15 15 14 13 13 13 13 13 13 13 13 13 12 12 11 11 12 13 13 13 13 14 14 14 13 13 13 13 14 13 12 11 10 10 10 10 10 10 10 10 10 10 10 10 11 11 11 11 10 11 13 14 14 14 12 10 8 8 9 10 12 14 15 15 15 15 15 14 12 10 10 10 11 12 12 11
13 13 13 12 13 10 10 12 11 10 10 12 13 14 11 6 6 10 11 11 12 14 14 13 13 12 12 13 12 11 11 12 12 12 12 11 11 12 13 13 13 13 13 14 13 12 12 13 13 13 13 12 11 11 11 10 10 10 10 10 10 9 9 10 10 10 11 11 11 11 12 14 16 17 16 13 11 9 9 10 12 13 14 16 18 18 19 20 18 16 13 11 11 11 13 14 13
13 13 12 12 12 11 9 9 9 9 9 9 9 11 10 9 10 13 12 10 12 13 13 13 12 11 11 12 10 9 10 12 12 11 11 11 10 11 12 12 12 12 12 13 13 12 12 12 12 13 12 12 12 11 11 11 10 10 10 10 9 8 9 9 9 11 12 12 13 13 14 16 19 19 16 13 12 13 13 13 12 13 13 14 17 18 18 19 19 19 17 14 11 10 12 13 13
12 10 9 10 10 9 8 7 8 9 7 4 2 3 8 10 12 12 11 11 11 12 12 12 11 11 10 10 9 9 10 11 11 11 10 10 9 9 9 10 10 10 10 11 12 13 12 10 10 11 12 12 12 11 11 11 10 9 9 9 8 8 9 9 10 13 15 16 17 16 15 16 17 17 16 17 19 21 21 19 15 14 14 15 17 17 16 17 19 21 21 19 15 13 11 12 13
9 7 7 8 6 8 9 8 8 8 6 2 4 1 8 10 12 12 11 11 11 11 11 11 11 10 10 9 9 9 10 10 10 10 9 8 7 6 7 7 8 8 8 8 9 10 10 9 8 8 9 11 11 11 11 11 11 10 10 10 9 9 9 9 11 14 17 19 20 19 17 19 19 19 21 23 26 27 28 27 22 18 18 18 17 16 16 18 20 22 24 23 20 16 13 12 13
7 7 8 7 5 8 10 8 7 5 5 2 5 3 8 8 12 13 11 11 10 10 10 11 11 10 10 9 9 8 9 10 9 9 8 8 6 5 5 5 6 7 8 7 6 7 8 8 7 6 7 8 9 10 10 10 11 11 10 10 10 10 10 11 13 15 18 21 23 23 21 22 24 25 25 23 22 25 28 30 27 23 22 22 19 16 16 18 21 25 29 27 23 22 19 16 14
7 7 7 8 6 7 8 9 9 4 3 3 3 2 7 8 11 12 11 11 10 9 10 10 10 10 9 8 8 7 8 9 9 9 8 7 7 5 5 5 5 6 6 7 6 6 6 7 7 6 6 6 7 8 8 8 8 9 9 10 11 13 13 15 16 16 18 21 22 21 19 19 21 23 22 19 18 23 28 29 29 26 23 23 22 20 19 20 23 26 30 29 26 24 22 20 17
7 8 6 9 9 7 7 8 9 7 5 4 2 1 6 10 12 12 12 12 10 9 9 10 10 9 8 7 7 7 7 8 8 9 9 8 7 6 6 5 5 5 5 6 6 6 6 7 7 7 7 7 7 7 7 7 7 8 9 11 12 14 15 15 16 15 16 18 17 13 12 12 12 14 14 15 17 22 27 28 29 27 24 24 24 25 24 24 25 24 24 26 27 24 20 19 19
9 8 6 8 8 8 7 6 8 10 7 4 3 3 8 12 12 11 12 11 10 9 9 9 9 9 9 7 7 7 8 8 8 9 10 9 8 7 7 6 6 6 6 6 6 6 6 7 7 7 8 7 8 7 6 6 7 9 12 14 15 14 12 10 11 12 12 12 11 8 8 10 10 11 9 10 14 17 21 24 26 27 26 25 25 26 25 24 26 25 26 28 28 26 22 20 20
12 11 9 9 9 9 8 5 7 10 7 5 5 4 9 12 12 11 12 11 9 9 9 8 8 8 8 8 8 8 8 8 9 10 9 9 9 8 8 7 7 7 6 6 6 7 7 7 7 8 8 7 7 6 5 6 8 10 12 14 12 10 8 6 7 9 8 6 6 7 8 10 11 12 10 6 9 11 14 16 19 21 20 22 23 24 24 25 26 26 27 30 30 27 25 23 20
11 12 10 11 10 9 9 6 6 9 7 6 6 4 8 11 12 11 11 11 9 8 9 8 8 8 8 9 9 9 8 8 9 9 9 9 9 9 9 8 7 7 7 7 7 7 7 7 7 7 6 6 6 4 4 6 10 11 10 10 9 7 7 8 8 7 7 4 4 5 7 9 11 13 10 6 7 9 10 11 13 16 16 17 20 22 24 25 25 22 19 22 25 25 26 25 20
9 10 9 9 9 7 9 8 7 8 7 5 6 6 8 11 11 11 10 11 10 9 10 10 10 10 8 9 10 9 8 7 8 8 9 9 9 10 10 9 8 8 8 8 7 7 6 6 6 6 5 5 5 4 4 6 9 9 7 7 7 7 7 7 9 8 8 8 6 4 5 8 10 12 10 7 8 9 9 10 11 14 15 14 15 18 20 20 20 20 16 16 18 21 23 22 19
9 9 8 8 6 4 7 9 7 8 6 4 8 8 8 10 9 10 10 10 9 9 9 9 10 10 9 9 9 9 8 7 7 7 8 9 9 10 9 9 9 8 8 8 7 6 5 5 5 4 4 4 3 4 5 5 6 5 4 5 5 6 7 6 9 10 9 10 9 7 7 9 10 12 12 11 10 10 11 11 12 13 14 13 13 14 15 16 17 18 18 18 17 19 20 19 18
9 8 8 7 8 7 6 8 9 8 6 5 7 8 6 9 8 9 9 8 8 8 8 8 8 9 10 10 9 9 9 8 7 7 8 9 9 10 10 9 9 8 7 7 6 5 4 4 4 3 2 1 1 1 1 1 3 2 4 6 5 7 8 7 8 9 8 10 10 8 9 10 11 11 12 13 12 12 12 14 14 14 14 15 16 16 16 17 17 17 18 20 20 19 19 17 16
9 9 9 7 9 12 9 8 11 8 7 6 8 8 5 8 10 10 9 7 8 9 9 9 8 8 8 9 9 9 9 9 8 8 8 9 10 10 10 9 9 9 7 6 5 4 4 4 4 4 2 2 2 1 3 3 4 4 5 7 7 7 8 8 9 9 9 9 9 9 10 10 10 10 11 12 13 13 14 16 16 15 15 16 16 16 17 18 16 16 16 19 21 19 18 17 14
8 10 12 9 6 11 8 11 11 7 7 9 10 8 5 8 11 11 10 9 10 10 11 11 10 10 9 9 9 9 9 9 8 8 9 10 11 10 10 10 9 9 8 6 5 5 5 6 6 5 4 3 3 3 4 4 5 6 7 7 7 7 7 7 8 9 9 8 9 9 9 10 9 10 10 11 12 12 14 15 15 15 16 16 16 15 16 16 15 14 14 16 19 19 19 18 17
6 7 8 7 7 7 9 13 11 7 6 8 10 8 5 7 10 12 12 12 13 11 12 13 12 11 11 10 10 10 10 10 9 9 10 11 12 12 11 11 10 10 9 7 6 7 7 7 7 6 5 5 4 4 4 4 4 4 5 5 4 5 6 5 6 7 7 7 8 8 9 9 9 10 10 10 11 11 12 13 13 14 15 15 15 13 13 13 12 11 12 13 16 18 18 19 19
1 4 4 5 7 8 11 12 9 5 3 6 10 9 6 5 7 11 14 14 14 14 14 14 13 13 13 13 12 12 11 11 10 10 11 12 13 13 12 12 11 10 10 9 8 8 8 9 8 7 6 5 5 3 3 3 2 2 3 2 2 3 4 5 5 5 6 7 7 8 9 9 9 10 10 10 11 10 11 12 12 12 13 14 13 12 13 12 11 11 11 12 15 17 18 19 20
2 5 5 5 6 8 9 9 5 3 3 6 8 7 7 7 4 8 13 14 15 16 17 16 16 15 15 15 15 14 13 12 12 11 12 13 14 13 13 13 12 11 11 10 10 10 10 10 9 8 6 5 4 3 3 3 3 3 3 3 3 3 4 5 6 6 5 6 7 7 8 8 9 9 9 10 10 10 10 10 10 10 11 12 12 12 13 12 12 12 11 13 16 18 18 19 22
5 7 8 7 5 5 4 5 3 3 6 8 9 9 7 7 5 7 10 12 14 16 16 17 17 17 16 16 16 15 13 12 12 12 13 15 15 14 14 14 13 12 11 11 11 11 11 10 8 7 5 4 3 3 3 4 3 3 3 3 4 4 5 6 6 6 5 6 7 7 7 7 7 8 8 8 9 10 9 8 9 9 10 11 11 11 13 13 13 13 14 17 18 20 20 20 23
11 9 8 7 5 4 2 2 2 4 7 7 8 10 8 8 5 6 8 11 13 13 14 15 17 18 17 16 16 16 14 12 12 13 14 16 16 15 15 15 14 13 13 13 12 11 11 9 8 7 6 5 4 4 3 2 3 3 3 4 5 5 6 6 6 6 6 7 7 7 7 7 7 7 7 7 8 9 8 8 8 8 9 10 10 10 14 16 15 14 16 18 18 19 21 20 22
11 7 7 6 4 4 4 3 4 6 6 3 3 7 9 9 6 5 6 9 12 11 11 15 19 20 18 17 16 16 14 13 13 12 13 15 15 15 16 16 15 14 14 14 12 12 11 9 9 8 7 6 5 3 2 1 1 2 3 4 5 5 5 6 6 6 6 7 7 8 8 7 7 8 7 7 8 8 8 8 8 8 7 9 10 11 14 17 16 15 15 16 17 17 19 19 20
8 6 7 6 4 5 5 5 5 7 4 3 2 5 8 8 8 10 9 7 9 9 9 12 16 19 19 18 17 15 14 14 14 12 13 14 14 16 18 17 16 16 15 15 13 12 11 10 9 8 8 6 5 3 2 0 1 1 2 4 4 4 5 5 5 5 5 6 7 7 8 8 8 8 8 8 8 8 8 7 8 8 7 8 10 11 13 14 15 16 15 15 16 16 18 20 21
9 8 7 6 5 6 7 6 6 7 4 4 3 3 6 8 7 9 9 6 6 8 8 9 10 15 18 18 17 15 15 15 13 13 13 13 15 18 19 17 16 16 16 16 14 13 11 10 10 8 7 6 4 3 1 1 1 1 2 3 3 3 4 4 4 4 5 5 6 7 7 7 7 7 7 8 8 8 7 7 8 8 8 8 9 10 11 12 13 15 15 15 15 16 18 20 22
9 8 7 7 6 6 6 5 6 7 4 5 4 3 6 6 1 3 1 2 0 4 7 7 7 9 12 16 17 17 16 15 13 13 14 15 17 19 19 18 17 17 17 16 15 14 12 11 10 8 7 6 4 3 2 1 1 1 2 2 2 2 3 3 3 3 4 5 6 6 6 6 7 7 7 7 7 7 7 7 7 8 8 9 9 10 11 11 11 12 13 14 14 14 15 18 20
6 4 6 6 5 5 3 3 4 5 3 4 5 4 6 4 1 4 4 2 3 4 6 8 8 8 9 13 16 17 16 15 14 14 14 16 18 19 19 18 18 18 18 17 15 15 13 11 10 9 7 6 5 5 3 2 1 1 1 2 2 2 2 2 3 3 4 5 6 7 7 6 6 6 7 7 7 7 7 8 8 8 9 9 10 10 10 11 11 11 11 11 13 13 13 16 18
6 5 6 1 3 3 3 1 1 3 7 4 4 5 6 5 5 6 5 5 6 7 9 10 10 10 11 11 14 16 16 15 15 14 14 16 18 19 19 19 19 19 19 18 16 15 14 12 11 10 8 7 6 5 4 2 2 2 2 2 2 2 2 2 3 4 5 6 6 7 7 6 6 6 7 7 8 8 8 8 9 9 9 10 10 11 11 11 10 11 11 11 12 12 14 17 18
4 6 6 5 3 3 4 4 3 5 7 3 4 8 7 4 3 5 7 6 7 7 9 10 10 11 12 12 12 15 16 16 15 15 15 16 18 19 19 20 20 21 20 18 17 16 14 12 11 9 8 7 6 5 4 3 2 2 2 2 2 2 3 3 3 4 5 6 6 7 7 6 6 7 7 8 9 9 9 9 10 10 10 11 12 12 12 12 12 12 12 12 13 12 13 17 18
4 2 7 5 4 5 5 5 5 5 7 4 4 6 6 6 3 3 5 5 4 5 8 10 11 13 13 12 13 15 16 15 15 15 14 15 17 19 20 20 21 21 20 18 18 16 14 12 10 9 7 6 6 5 4 3 3 3 3 3 3 3 3 4 4 4 5 6 6 7 7 7 7 7 8 8 9 9 10 10 11 12 12 12 13 13 13 13 13 13 13 13 14 14 13 16 18
3 2 6 6 5 3 4 4 4 5 6 6 3 4 5 5 2 1 2 3 4 4 6 9 11 13 13 12 13 14 15 15 14 15 14 15 18 21 21 21 22 21 20 18 18 16 14 12 11 9 8 7 6 5 4 4 4 4 4 3 4 4 4 4 4 5 5 6 6 7 7 7 7 7 8 8 9 10 11 12 13 13 13 14 14 14 14 13 12 12 12 14 15 16 16 16 18
8 7 8 7 4 2 3 4 4 5 5 5 4 5 4 2 4 1 3 3 3 4 5 7 9 11 12 12 13 13 14 15 15 15 15 16 19 22 22 21 21 21 20 19 17 15 13 12 11 10 9 8 7 7 6 5 5 5 5 5 5 5 5 5 5 6 6 6 6 6 7 7 8 8 8 9 10 11 12 13 14 14 15 16 15 15 14 14 12 12 13 14 15 17 19 19 19
11 9 9 10 7 5 5 5 4 3 5 5 4 6 5 4 5 3 3 3 4 4 5 6 7 9 11 12 14 14 14 16 16 16 16 16 19 22 22 22 21 20 20 19 16 14 13 12 11 10 9 8 8 7 7 6 6 6 6 6 6 6 6 6 7 7 7 7 7 7 8 8 9 9 9 10 10 11 12 13 15 15 15 15 16 14 13 13 13 13 15 15 15 18 22 22 23
Wind_Direction
134 278 288 285 289 292 271 254 83 88 84 81 80 81 79 84 96 95 99 107 95 84 82 82 76 65 75 89 102 89 37 40 31 95 104 104 118 134 145 138 138 136 131 129 132 131 125 127 129 128 131 132 136 137 135 134 134 134 134 135 135 134 131 129 127 126 127 126 127 127 129 130 127 127 125 125 124 124 122 120 118 118 116 116 117 119 123 123 117 110 105 102 106 108 106 106 105
266 272 278 294 286 286 277 231 85 86 86 81 78 80 94 96 94 89 88 92 89 97 95 86 83 80 89 98 112 100 58 35 39 74 86 107 122 134 140 136 135 133 127 127 129 128 130 131 128 129 134 134 136 139 138 138 139 139 140 139 139 137 134 132 131 133 133 129 131 132 134 133 131 131 129 127 126 125 124 123 122 121 116 112 110 112 115 115 113 110 109 110 111 110 110 107 104
242 277 288 301 275 258 281 222 84 83 84 82 83 85 96 92 86 84 82 89 98 105 98 97 86 73 97 95 81 85 84 70 88 91 95 119 131 136 139 135 129 128 124 124 129 135 140 136 128 127 130 130 132 137 138 140 142 143 144 142 140 138 136 134 132 135 136 134 135 134 134 132 132 134 131 127 127 127 126 125 123 120 115 110 108 108 108 110 112 112 112 111 109 107 106 104 105
204 261 292 303 273 231 292 79 74 75 82 83 86 86 87 83 84 85 89 96 107 111 100 100 80 39 69 88 88 87 96 94 93 98 116 135 132 135 140 135 128 126 125 127 142 145 144 139 130 129 128 128 133 135 137 142 143 145 145 142 140 138 137 136 134 135 137 137 136 134 132 131 131 130 129 127 128 128 128 126 122 119 114 107 105 105 105 106 108 109 110 110 109 110 108 108 109
193 246 286 294 297 348 35 77 71 65 73 82 90 86 87 86 90 92 97 104 108 106 97 99 89 73 66 70 92 98 106 110 107 109 125 132 126 138 140 133 128 122 122 129 157 144 136 133 127 130 132 133 137 136 139 144 144 146 145 142 141 138 137 138 138 140 140 139 136 134 133 131 129 126 125 125 126 126 125 122 119 118 115 107 103 103 103 106 106 108 110 112 114 112 108 106 111
215 245 251 270 302 325 68 84 78 67 61 76 90 88 93 95 97 99 101 102 95 88 89 94 95 100 82 59 65 82 114 120 124 120 124 131 133 143 139 134 132 124 118 118 130 133 134 131 128 132 133 134 139 141 143 145 146 147 146 144 142 139 138 140 142 141 140 139 136 134 132 129 126 122 121 121 122 120 119 117 114 111 109 105 101 101 101 104 105 109 112 115 115 113 111 109 126
257 264 227 245 260 212 88 82 80 76 66 73 88 93 96 101 107 111 111 105 98 89 86 95 103 104 97 90 75 72 105 116 127 126 128 134 137 144 138 132 130 127 123 124 136 142 140 132 129 131 132 138 142 144 145 145 147 148 149 145 142 141 142 144 143 141 141 138 136 133 129 126 122 120 118 118 117 115 115 116 114 109 104 100 94 90 88 88 88 93 100 109 106 113 121 121 162
262 276 254 247 142 114 84 80 79 80 81 80 85 92 99 107 114 117 112 106 102 104 102 106 110 100 98 109 92 88 106 113 124 125 129 134 139 144 137 129 128 131 131 135 144 144 140 133 133 134 137 143 145 145 144 145 147 148 148 145 144 144 144 145 142 141 141 138 135 132 128 124 122 122 120 119 118 117 116 115 115 110 103 95 87 78 71 68 63 51 34 27 33 75 134 260 218
247 254 264 217 104 91 88 88 85 84 91 90 90 98 106 109 111 110 105 100 101 106 106 103 101 102 105 101 97 107 109 114 125 128 133 136 142 145 139 133 128 131 135 140 145 144 144 141 141 143 145 147 147 145 144 146 147 147 147 145 145 145 145 145 143 142 141 138 134 131 129 127 127 126 124 124 122 120 120 120 119 118 119 112 95 76 64 48 33 26 34 351 342 334 280 293 288
241 226 284 198 103 91 92 92 93 91 93 95 99 107 112 110 107 106 106 105 107 103 91 87 99 112 112 106 105 111 116 128 133 133 138 139 142 143 143 143 134 131 133 139 145 147 147 144 145 148 147 146 148 147 145 146 149 150 148 147 147 148 148 147 145 144 142 139 136 134 133 133 135 134 132 132 130 128 129 132 135 139 147 147 136 116 79 23 275 249 252 248 242 249 247 266 283
248 178 271 180 107 94 93 94 96 96 99 101 103 107 108 108 105 103 104 104 104 106 109 109 107 113 113 108 104 109 125 139 139 138 141 142 145 144 142 147 146 141 137 138 142 143 143 145 148 151 150 147 148 146 144 146 151 150 145 148 149 147 148 149 148 148 147 143 143 143 142 144 146 145 144 143 142 142 145 147 152 154 160 170 176 190 309 298 270 267 283 281 270 260 259 262 270
280 135 198 140 96 97 101 99 98 102 106 106 111 112 107 109 111 109 104 107 115 117 126 132 121 123 119 112 111 127 140 146 143 142 143 143 148 148 144 146 149 146 144 144 142 142 145 149 152 154 156 154 150 146 144 148 154 152 150 153 150 149 153 153 153 153 153 151 153 153 155 160 157 156 154 154 157 160 167 169 180 185 200 205 212 281 298 289 285 288 291 288 285 280 275 275 280
289 0 180 109 91 106 102 100 106 112 110 108 120 121 118 110 105 109 106 111 118 113 108 124 138 133 113 114 127 142 150 150 146 146 147 146 148 150 148 148 148 144 142 144 145 148 153 154 156 159 163 162 159 155 151 154 159 160 161 161 154 157 160 158 160 160 161 162 164 163 167 175 171 173 169 169 174 175 193 216 232 237 264 270 271 294 299 291 295 302 303 302 296 294 287 283 289
288 331 341 120 125 111 98 111 121 117 109 111 123 130 127 90 92 110 116 114 95 93 102 117 141 125 114 127 141 156 157 154 152 151 151 147 147 149 149 151 150 146 141 144 148 151 155 156 159 161 163 163 164 163 161 163 164 163 162 162 159 163 166 164 166 167 170 172 176 174 176 191 188 183 179 187 194 198 224 248 261 267 279 286 286 293 299 295 299 302 307 311 305 306 304 302 303
283 313 235 140 132 126 112 120 117 110 113 123 129 133 120 89 107 106 85 97 95 110 118 123 146 133 143 155 159 161 157 156 156 153 152 148 148 146 146 151 152 152 147 148 152 153 156 158 161 163 162 163 166 166 166 167 167 165 163 166 171 174 175 174 176 179 182 180 190 197 195 206 201 186 186 198 210 229 252 264 271 275 276 285 289 291 296 295 296 298 305 311 308 311 314 313 307
270 289 220 147 129 134 129 133 123 111 117 131 136 141 123 102 103 79 59 92 114 133 138 117 150 193 153 155 152 152 153 155 156 153 153 150 150 147 148 154 155 159 158 155 156 158 158 157 161 165 168 170 170 171 172 169 170 176 179 181 186 190 191 191 195 194 193 191 206 222 215 218 222 203 202 206 218 234 256 265 265 270 272 278 284 289 295 294 294 297 303 306 307 312 314 310 299
247 260 204 137 125 125 130 152 125 103 119 134 144 149 126 113 100 85 98 114 121 135 112 77 126 145 124 130 138 144 150 154 155 155 154 155 156 154 155 160 160 165 169 166 164 162 160 160 163 164 168 170 172 176 178 175 174 182 189 191 196 203 205 207 217 216 211 212 224 242 242 258 279 257 258 262 227 228 252 263 267 278 283 285 290 293 292 289 294 299 300 301 306 313 318 310 293
224 233 164 113 97 102 114 119 87 107 129 136 147 149 127 125 122 122 128 117 120 122 105 102 103 98 103 119 133 140 148 155 159 159 158 161 164 163 163 166 168 170 173 174 173 168 166 166 168 168 166 168 173 174 176 181 183 185 188 194 201 205 208 218 224 221 222 225 235 257 265 267 264 255 252 249 238 240 261 264 267 280 285 288 291 291 291 289 293 298 299 301 305 312 318 306 286
232 251 110 86 82 93 92 102 100 113 124 130 141 140 121 120 126 157 165 122 127 117 111 119 113 111 114 125 136 140 149 157 163 164 163 166 168 170 169 170 173 174 176 178 178 174 173 170 172 172 168 175 183 180 179 183 185 185 186 191 198 200 210 227 230 228 232 230 232 250 262 270 278 285 280 272 279 268 268 274 274 276 279 283 286 286 289 290 293 296 295 298 301 305 308 297 283
231 273 99 87 89 102 92 106 112 87 113 128 128 121 109 108 126 174 176 134 142 128 127 134 129 135 135 135 140 144 153 158 165 169 168 169 171 174 175 176 178 179 181 181 178 177 179 175 175 175 178 187 191 194 193 186 188 188 189 197 203 205 213 228 232 235 241 241 243 252 258 268 280 286 286 285 284 270 267 275 276 272 272 277 284 284 284 288 291 293 290 294 294 287 287 287 284
215 315 85 99 108 108 92 100 106 94 113 126 125 124 111 104 107 101 147 159 137 112 127 143 142 146 145 143 145 150 157 160 167 173 173 173 176 179 181 183 185 183 185 185 179 180 183 180 179 178 181 187 191 198 197 198 204 200 205 216 220 220 221 224 227 231 240 245 247 254 259 263 265 266 269 270 269 268 266 268 269 266 262 265 274 277 277 279 281 283 281 283 282 273 281 285 283
132 63 78 99 112 101 94 93 100 108 119 124 126 121 114 109 82 60 41 58 67 63 100 132 141 147 148 147 150 155 160 165 172 176 178 180 181 184 183 185 191 188 190 191 185 184 187 186 185 183 182 184 192 200 200 207 211 210 218 223 226 228 229 231 234 234 238 241 238 242 250 254 256 256 259 261 261 266 264 261 263 260 257 259 263 269 272 273 274 277 273 272 276 278 286 284 279
139 100 91 92 94 99 101 105 112 122 120 118 119 114 119 112 82 64 56 58 63 65 95 123 135 144 148 149 154 159 164 170 175 179 183 184 185 189 186 186 192 192 194 197 192 189 190 191 189 189 189 191 201 205 206 212 210 214 221 222 224 230 235 242 246 242 240 240 236 238 248 254 259 259 259 259 258 263 264 261 264 262 261 264 262 263 269 272 275 277 276 276 278 279 282 281 276
138 114 109 96 97 103 108 118 123 116 109 110 116 118 113 102 91 78 71 72 77 86 103 122 132 143 148 152 160 164 167 172 176 180 185 187 189 191 189 189 192 194 197 200 200 195 193 195 193 193 197 200 207 211 214 219 221 222 225 227 236 243 247 251 253 254 254 249 249 252 255 260 265 267 265 264 262 263 266 266 267 265 264 265 264 265 268 271 273 275 278 277 277 279 280 276 270
119 117 118 110 104 109 117 122 119 109 109 112 111 106 92 94 97 84 82 87 92 101 114 124 133 143 150 156 162 164 168 173 174 178 183 187 189 190 191 191 193 196 198 203 205 201 199 198 195 197 201 203 206 212 217 222 229 233 233 234 245 249 247 251 256 260 261 259 261 262 260 263 268 272 270 270 270 263 264 267 269 272 272 272 272 273 275 277 277 277 279 278 279 283 280 274 269
114 127 128 123 114 118 124 120 113 108 110 112 112 109 102 107 104 86 88 99 106 113 120 127 137 145 151 157 160 163 170 171 171 175 178 181 184 187 192 192 194 198 201 205 207 205 204 200 198 200 203 206 208 213 219 224 230 234 235 235 240 242 242 249 254 256 259 261 263 264 266 267 268 272 272 272 272 270 272 272 276 288 291 292 296 294 290 288 287 287 287 284 284 287 286 283 279
124 131 125 123 119 121 124 116 110 105 108 113 114 111 112 128 127 102 104 112 118 121 125 133 140 145 151 153 155 163 169 169 167 169 170 174 180 185 190 193 194 198 201 205 208 208 207 204 203 204 206 208 211 218 225 229 233 235 237 240 242 244 248 251 253 256 260 262 264 264 265 268 270 272 276 280 284 292 296 291 294 302 305 310 314 308 305 306 306 304 298 294 290 287 289 288 287
132 128 122 123 121 122 128 123 114 110 113 114 114 113 114 121 110 112 123 128 127 125 128 137 139 141 148 149 151 163 169 169 169 172 174 174 177 182 186 190 192 195 200 204 208 209 208 209 208 208 209 211 215 224 230 235 239 241 242 244 247 250 253 256 259 262 262 265 267 267 268 274 278 279 282 286 289 294 293 295 300 304 309 312 311 307 308 312 313 310 302 299 295 289 289 289 288
140 135 128 130 129 127 135 132 122 127 125 120 128 121 107 100 104 117 131 136 134 132 133 137 137 138 144 148 150 161 170 171 176 179 179 176 176 181 183 187 190 192 198 202 207 212 212 212 212 211 212 213 217 226 235 241 244 248 251 251 252 252 253 256 260 263 264 267 267 268 270 277 284 285 287 288 288 289 288 289 294 303 311 307 300 301 306 309 311 312 308 302 300 296 292 290 291
151 150 141 144 146 137 146 147 133 139 131 119 183 119 97 108 119 128 139 144 142 138 138 140 140 142 146 150 152 159 168 173 179 181 180 179 175 176 180 185 189 193 197 198 204 214 217 216 216 215 214 216 219 226 237 243 248 253 256 256 254 252 255 253 258 268 272 273 270 268 270 276 280 278 278 278 280 285 290 291 293 300 302 298 294 292 295 303 309 314 314 308 303 302 298 294 295
159 163 160 167 169 146 155 162 156 157 133 149 258 88 98 120 129 135 146 152 152 144 143 146 145 147 149 152 157 158 166 174 179 180 179 180 177 169 173 180 185 193 198 194 196 209 215 215 214 212 211 216 220 227 236 243 249 253 257 260 258 258 260 259 266 274 277 278 274 270 270 270 266 262 264 266 268 272 277 279 281 284 283 284 288 286 282 287 296 306 311 309 302 300 298 296 294
165 180 176 179 181 151 160 172 179 173 126 193 275 78 104 124 134 140 150 158 162 151 145 151 151 155 156 158 164 160 165 174 180 185 183 181 187 179 174 182 187 194 199 197 191 195 202 204 205 206 205 214 222 228 236 242 247 252 258 262 264 267 267 272 275 273 276 280 279 276 274 270 265 265 266 264 263 265 268 267 267 270 271 271 272 275 275 274 283 294 298 298 294 291 289 289 288
184 207 181 172 187 162 164 178 184 192 149 182 275 86 115 130 139 141 151 162 167 158 151 156 156 159 163 165 169 168 169 174 180 189 189 183 185 187 185 188 193 197 200 198 193 189 192 194 198 203 203 207 216 224 232 237 245 252 260 268 275 276 273 279 280 273 279 287 288 285 281 275 271 275 274 264 260 264 267 266 263 265 269 271 269 267 266 266 277 286 288 282 274 274 274 273 273
193 218 187 174 186 171 164 174 177 190 197 178 200 126 110 127 145 147 153 164 169 163 158 160 159 162 171 176 176 178 179 179 182 185 189 189 185 187 188 189 195 199 197 194 193 190 191 191 192 196 197 197 202 214 223 228 242 253 264 275 281 280 277 282 286 284 287 288 286 281 281 293 298 302 290 265 261 263 263 263 263 264 265 266 267 267 267 268 272 276 275 268 259 257 258 256 256
193 204 191 178 184 185 177 167 171 184 199 194 196 155 120 134 149 150 155 165 172 168 162 163 163 165 173 181 184 184 184 184 183 183 187 190 192 197 199 200 201 199 194 188 187 189 191 192 191 194 196 198 203 211 222 232 243 254 269 277 280 286 285 283 288 294 291 281 281 283 296 326 335 334 318 274 272 273 264 264 263 262 260 257 259 264 266 266 265 262 257 254 252 252 251 251 253
194 198 193 182 185 196 188 164 168 185 201 208 207 166 142 149 151 154 157 161 175 172 164 167 166 168 175 183 187 183 185 184 176 177 180 186 195 203 206 207 203 196 189 184 184 188 194 195 197 200 200 206 213 218 233 242 252 269 283 285 285 291 295 295 295 301 303 284 294 321 341 352 347 341 338 296 277 274 264 266 264 259 253 248 248 255 260 261 261 258 251 248 249 250 250 252 256
195 200 199 193 195 193 185 177 168 187 211 201 199 186 157 157 153 157 158 158 177 178 168 174 173 174 177 181 185 182 185 180 168 174 183 190 197 200 203 204 199 195 188 185 187 190 196 201 204 206 205 215 224 230 235 242 265 283 291 290 293 302 308 319 321 320 328 318 305 329 347 350 345 339 331 288 266 268 259 257 259 260 253 245 246 252 258 261 260 257 256 253 250 250 250 251 251
202 205 205 206 210 189 174 182 172 186 218 192 185 201 169 160 156 155 162 166 175 180 177 180 177 178 180 183 185 184 188 181 173 183 191 195 197 196 199 199 196 196 192 192 192 191 197 203 210 214 213 218 232 250 247 253 273 280 278 275 290 313 316 322 325 323 326 325 321 324 326 325 330 329 319 292 276 277 273 267 265 266 261 254 252 253 256 259 256 252 254 257 254 252 250 250 245
208 206 208 213 202 157 157 178 177 180 215 197 186 204 170 158 160 159 173 176 169 177 183 183 181 180 184 187 188 187 189 189 191 196 192 191 192 191 194 196 196 194 190 190 191 195 198 198 205 212 216 222 247 254 243 256 269 271 291 284 285 316 320 321 326 328 331 335 334 335 334 326 322 320 317 310 295 282 276 272 267 264 260 253 251 252 251 250 249 245 240 241 249 254 254 255 244
216 208 211 214 177 176 192 181 179 184 213 220 194 203 173 159 170 169 180 180 165 172 180 187 193 192 192 192 192 193 192 194 199 200 192 184 183 185 189 192 191 187 185 186 186 192 192 183 180 181 192 185 174 239 233 311 285 273 308 305 313 331 334 341 345 344 345 345 339 335 336 330 322 316 314 310 300 290 280 272 268 264 258 256 256 257 255 251 248 245 239 236 241 248 251 253 243
217 219 226 231 186 208 229 172 168 183 207 220 200 201 190 180 189 182 180 183 176 177 182 192 200 204 206 201 198 199 198 197 198 199 190 179 178 180 182 185 184 182 183 183 178 174 167 155 149 150 142 121 118 69 32 7 345 348 340 337 346 350 350 355 358 353 348 346 338 332 333 330 324 316 310 305 297 290 283 279 277 268 260 258 258 258 258 258 254 250 247 245 245 247 252 256 250
204 214 231 256 239 231 218 159 165 194 203 205 204 214 210 194 201 193 180 186 189 185 189 196 198 201 209 210 207 204 201 198 196 196 188 180 179 175 176 181 180 179 179 174 163 154 147 139 133 134 128 116 102 68 37 14 4 3 359 356 354 352 353 356 356 349 348 348 340 335 335 335 334 326 314 306 300 294 286 282 278 272 265 260 258 258 259 261 261 255 252 253 254 255 258 261 260
197 192 214 249 255 225 185 169 187 218 207 192 205 230 233 195 203 200 189 191 194 193 200 203 198 198 205 210 209 204 200 196 194 195 189 182 178 175 177 179 180 179 170 158 153 149 142 138 136 133 126 115 99 79 52 26 17 13 10 5 358 358 355 357 356 350 350 350 345 343 341 340 343 339 329 320 315 308 299 290 283 278 273 271 268 263 261 263 264 260 256 259 264 266 263 261 262
183 106 163 203 216 195 183 192 206 213 176 180 202 223 242 228 213 200 195 197 198 198 204 207 203 201 204 207 207 204 200 194 191 192 189 184 181 179 178 177 180 175 161 157 159 152 146 142 138 134 127 117 107 91 75 62 58 58 44 32 25 20 11 2 356 356 358 354 350 350 347 344 347 348 344 339 335 328 317 306 296 288 282 287 286 274 272 270 264 263 262 264 268 268 264 262 265
65 85 130 155 188 188 189 201 202 181 194 207 203 209 240 244 212 191 198 203 207 208 207 207 206 204 203 205 206 204 200 196 194 192 189 186 183 182 180 177 176 168 159 162 159 151 146 142 137 134 129 121 117 113 113 112 103 94 76 56 42 27 16 1 351 355 1 357 353 352 349 346 347 349 349 348 347 344 337 323 310 301 292 294 293 286 284 278 277 281 278 276 272 266 260 258 262
112 113 116 117 142 165 187 211 196 192 222 228 203 199 241 251 201 185 204 212 214 212 210 208 205 204 204 205 205 204 200 197 197 195 192 189 187 187 183 176 171 166 161 158 153 150 147 143 143 142 139 139 143 142 135 122 101 87 74 54 36 18 7 355 350 355 357 354 350 347 345 343 342 343 344 347 349 348 346 338 327 317 305 297 293 293 291 291 299 298 289 287 281 271 265 257 257
140 134 123 121 127 137 180 214 197 216 228 230 202 196 231 262 231 192 203 220 224 217 211 208 205 205 204 203 204 202 199 196 195 196 195 194 190 184 180 175 170 164 159 155 153 152 149 148 154 155 157 161 158 152 138 112 85 70 56 33 20 10 359 351 349 349 349 349 346 343 340 335 335 335 337 340 346 349 345 339 335 325 314 306 300 299 294 297 304 296 288 291 284 273 270 264 258
156 154 152 146 134 161 186 174 197 235 229 201 186 202 223 249 260 235 212 217 227 228 217 207 205 205 203 201 203 200 197 196 192 192 194 193 185 178 180 177 168 161 158 160 159 156 156 161 167 168 170 168 161 157 143 106 70 57 39 18 11 4 355 350 347 345 349 347 342 341 336 328 328 327 331 336 342 348 345 341 340 331 319 309 302 297 292 295 296 288 284 284 277 269 269 267 263
180 177 178 183 174 185 204 193 208 239 222 129 147 213 229 246 256 260 264 241 222 226 229 217 207 204 200 198 200 197 195 195 191 188 190 190 184 181 183 177 167 164 163 165 166 164 167 173 178 177 171 167 163 161 159 144 26 35 21 5 2 358 351 346 343 342 345 343 337 335 331 325 323 322 325 330 333 341 342 340 341 335 325 315 305 298 295 294 292 288 284 278 271 265 265 266 264
197 191 194 208 199 201 222 215 224 245 215 129 128 203 247 262 250 247 266 274 235 220 225 227 215 209 203 197 197 196 194 195 192 187 186 189 189 186 182 174 169 169 168 170 171 169 173 179 184 183 173 169 169 171 188 269 316 350 355 352 352 350 345 340 338 339 340 338 331 325 324 318 314 317 320 321 324 331 335 335 335 332 326 319 311 304 300 297 293 291 289 283 277 271 271 273 270
201 200 207 224 224 225 235 229 236 246 202 138 140 196 244 262 206 165 205 23 319 223 219 223 219 215 210 200 197 195 193 192 189 187 187 187 188 185 179 175 173 172 173 176 173 170 177 184 186 185 179 178 183 189 199 237 279 300 320 328 338 340 340 337 329 333 332 328 323 315 313 311 310 313 313 311 314 317 322 326 326 327 325 319 315 310 307 306 302 299 295 291 288 282 279 278 274
190 203 219 233 245 231 247 312 294 289 273 191 183 218 245 263 234 174 181 178 194 206 212 218 218 215 212 207 202 196 191 190 187 186 186 184 185 184 180 177 177 177 178 179 174 173 182 188 188 187 184 187 193 195 196 212 248 264 281 295 322 324 322 321 312 320 325 320 317 311 306 307 307 308 307 303 301 301 305 311 315 320 321 319 318 315 313 313 310 306 304 297 292 293 292 289 283
166 202 214 190 356 257 233 275 279 280 275 237 191 235 241 246 248 204 196 237 230 213 211 215 217 213 210 211 208 201 192 187 185 183 182 182 183 184 182 180 181 182 182 182 176 177 186 190 188 186 186 193 198 198 199 206 230 247 258 268 293 301 295 298 302 317 325 321 319 315 309 306 304 304 304 298 295 295 295 297 304 312 316 318 318 316 313 312 310 309 308 302 298 299 297 297 296
189 208 179 118 42 267 244 249 213 228 258 239 194 245 250 232 226 174 181 230 236 216 214 213 211 210 210 209 207 202 193 185 181 180 180 181 182 183 183 183 184 184 184 182 178 180 188 191 188 187 190 199 203 205 212 222 238 252 251 246 255 271 272 274 285 306 319 324 326 326 318 310 304 302 300 297 296 295 294 295 300 307 313 315 315 314 311 308 307 307 307 306 309 310 302 298 299
268 237 153 160 225 208 199 242 257 253 270 272 206 230 253 239 218 155 186 233 256 222 208 208 209 207 208 206 199 196 190 182 179 180 180 181 180 182 184 184 184 184 183 181 179 182 189 190 187 189 195 205 212 213 221 237 249 249 243 238 239 243 247 254 271 293 308 317 324 328 325 314 304 299 297 298 298 297 296 297 299 304 309 312 313 312 309 306 304 304 307 312 317 318 311 304 303
253 237 175 203 251 229 196 227 271 278 280 287 242 212 235 222 172 98 237 264 280 236 201 206 213 207 206 202 193 190 186 182 180 181 181 180 182 184 186 186 184 182 181 181 182 186 192 190 183 186 196 206 217 221 229 245 251 246 239 233 230 231 236 244 260 279 293 303 311 318 323 319 309 301 297 297 297 296 295 295 296 300 303 306 311 311 308 305 299 297 306 310 313 315 314 311 308
196 211 199 197 205 245 245 223 249 274 279 288 274 261 271 118 117 215 263 255 256 241 213 213 214 208 204 197 191 188 185 184 184 184 182 180 182 184 186 186 183 180 181 185 186 190 195 193 187 192 203 213 223 228 235 247 250 244 240 237 234 234 237 246 260 273 282 288 293 300 312 317 312 307 302 298 296 294 292 291 291 292 294 299 306 309 308 305 300 300 308 309 310 315 316 316 313
199 207 208 204 196 210 237 223 205 230 265 278 283 282 293 95 129 204 246 242 231 228 228 220 209 206 200 192 191 188 186 187 187 188 186 180 180 183 186 187 183 180 184 188 187 189 194 196 200 208 217 228 236 234 234 242 245 241 238 237 238 239 242 250 262 271 278 283 289 295 301 306 307 306 303 298 295 293 291 289 287 287 288 291 299 304 305 304 303 306 311 313 314 315 314 315 316
Height
764 764 763 763 761 761 759 757 771 768 768 793 795 801 801 788 790 795 799 795 797 796 787 789 789 790 795 801 807 808 808 808 809 814 819 810 809 816 818 820 822 824 825 826 827 830 831 832 832 834 837 839 839 839 839 838 838 839 840 842 842 844 844 846 847 849 850 852 854 855 857 857 858 858 859 859 859 860 861 862 862 863 864 864 864 863 863 863 862 862 863 864 865 865 866 867 867
765 765 763 763 760 763 760 753 777 783 784 805 802 803 799 787 793 799 797 795 798 793 787 790 791 792 793 795 797 803 810 805 801 803 805 805 812 818 819 822 824 826 827 828 829 832 834 834 834 835 837 839 840 841 840 841 842 842 843 844 845 846 847 849 850 852 853 854 856 857 858 858 859 859 859 860 860 861 862 863 864 864 865 865 865 864 864 864 864 864 864 865 866 866 867 867 867
767 766 763 764 759 760 758 754 779 791 798 814 810 798 791 794 799 797 793 793 794 788 790 792 794 795 794 800 801 807 814 805 799 801 805 810 814 818 822 824 826 828 829 830 831 832 835 837 838 839 839 840 842 842 842 843 844 845 846 847 848 849 850 851 853 855 856 857 858 858 859 860 860 860 860 861 862 863 863 864 865 865 866 866 866 865 865 865 865 865 865 866 867 867 867 867 867
767 767 764 764 762 761 761 767 782 788 801 814 811 799 792 799 798 795 793 791 789 788 793 795 801 796 795 809 807 809 814 807 804 804 809 813 815 819 823 825 828 829 830 832 830 832 836 839 841 842 842 842 843 843 843 844 846 847 848 849 849 850 851 853 854 856 857 858 859 859 860 861 861 861 862 862 863 864 865 865 866 866 866 867 866 866 866 866 866 866 866 866 867 867 867 867 866
768 768 765 764 769 767 764 774 783 789 800 804 808 802 795 798 797 798 794 791 789 790 794 796 806 799 797 806 802 811 815 810 808 806 810 814 817 821 824 827 830 831 833 833 830 832 836 840 842 843 844 844 845 845 845 846 847 848 849 850 851 851 853 854 856 857 858 859 859 860 860 861 862 862 862 863 864 864 866 866 866 867 867 867 867 867 867 867 866 866 866 867 867 867 867 866 866
767 768 765 765 766 763 771 784 792 799 795 790 802 800 793 796 797 799 796 794 790 790 793 795 804 804 807 806 801 810 811 811 811 809 812 816 819 822 825 828 831 833 836 836 833 833 836 839 841 843 844 845 846 847 847 848 848 849 850 851 852 853 854 855 857 858 858 859 859 860 861 862 862 863 863 864 865 865 866 867 867 867 867 867 867 868 867 867 867 867 867 867 867 867 867 866 865
767 769 766 770 767 761 780 792 795 803 792 784 795 796 793 795 795 798 799 800 798 795 795 797 799 805 814 810 809 812 809 811 811 812 815 817 820 822 826 829 833 836 838 838 835 835 838 839 840 842 843 844 846 848 849 849 850 851 852 853 855 856 857 857 857 859 859 860 861 861 862 863 863 864 864 865 866 866 867 867 868 868 868 868 868 869 868 868 868 868 868 868 868 868 867 866 864
767 769 764 774 777 769 785 794 793 799 793 784 787 791 793 793 793 797 800 802 803 801 800 800 796 810 817 808 816 816 810 814 813 816 818 819 822 823 827 830 834 837 840 839 838 839 840 841 842 842 843 845 847 848 850 850 851 853 854 856 857 858 859 859 859 860 860 861 862 862 863 863 864 865 865 866 866 867 868 868 868 869 869 869 869 869 869 869 869 868 868 868 869 869 868 867 865
765 768 765 773 781 780 790 796 796 795 790 787 788 791 791 790 791 795 800 801 802 802 803 800 798 814 819 812 820 816 812 817 817 819 820 822 824 825 828 830 834 837 839 840 842 843 842 843 843 843 844 846 847 848 850 851 853 853 856 857 858 859 859 860 860 861 861 862 863 863 863 864 865 865 866 866 867 868 868 869 869 870 870 870 870 869 869 869 869 868 868 869 869 869 869 868 867
765 767 770 774 781 792 798 798 799 795 791 788 789 790 789 789 790 794 799 803 802 804 804 799 802 813 817 819 822 816 816 819 819 822 822 824 825 827 830 831 835 836 839 840 843 844 844 845 844 844 845 846 847 848 850 852 853 854 856 857 858 859 859 860 861 861 862 863 863 864 864 864 865 865 866 866 867 868 868 869 870 870 870 870 870 869 869 868 868 868 868 868 868 868 869 868 867
771 766 768 780 789 800 804 801 800 797 791 787 789 787 786 786 790 795 798 803 802 805 806 801 809 814 816 822 821 818 819 821 821 823 824 826 827 829 831 834 836 837 838 838 841 843 844 845 845 846 846 847 848 849 851 852 854 855 857 857 858 859 860 861 861 862 863 864 863 864 864 864 865 866 866 867 868 868 868 869 870 871 870 870 869 869 869 868 868 868 868 868 868 869 868 868 868
778 770 768 787 794 797 797 800 803 799 794 792 795 788 783 785 791 798 800 805 803 806 805 803 810 811 819 827 822 820 820 822 823 824 827 827 829 830 832 835 837 839 839 839 841 843 844 845 847 848 848 849 849 851 852 854 856 857 858 858 859 860 861 862 863 864 864 864 864 863 863 864 865 866 867 867 868 868 868 869 870 871 871 870 869 869 869 868 868 868 868 868 868 869 869 869 869
777 773 773 790 790 789 791 797 801 800 800 796 794 787 782 787 792 795 798 803 802 808 806 799 803 806 820 827 821 821 820 823 824 826 828 828 830 832 833 835 837 839 841 842 843 844 845 847 848 849 850 851 851 853 854 856 857 858 860 860 861 861 862 863 864 865 865 865 865 864 864 864 865 866 868 868 869 869 869 869 870 870 870 870 869 869 869 868 868 868 868 868 868 868 869 869 869
771 768 774 792 788 786 790 796 798 801 806 794 789 786 784 789 790 790 794 805 806 806 803 795 797 808 822 826 826 823 820 824 825 828 829 830 832 833 835 836 837 839 841 843 845 846 847 848 849 849 850 851 853 854 855 856 857 859 860 861 862 863 863 864 865 866 866 866 866 866 865 865 866 867 869 869 870 870 869 869 870 870 870 870 869 869 869 868 868 867 867 867 867 868 868 869 868
766 764 771 788 790 791 792 793 792 799 805 792 787 786 788 790 786 789 792 804 809 798 798 798 798 810 819 823 827 821 819 824 826 829 830 832 833 834 837 837 838 839 841 843 845 847 847 849 849 850 851 852 853 854 855 856 858 859 860 861 862 864 864 864 865 866 867 867 867 867 867 866 867 867 868 869 870 870 870 870 870 870 870 869 869 869 869 868 867 867 867 866 866 867 867 868 868
760 763 773 785 791 795 793 789 788 797 799 789 786 784 792 793 784 793 791 794 804 797 798 803 800 805 808 811 817 815 819 825 826 830 831 833 835 836 838 838 840 840 841 843 845 847 847 849 849 851 852 852 854 855 856 857 859 859 860 862 862 864 865 865 865 866 867 867 867 867 867 867 867 868 869 869 870 870 870 869 870 870 870 869 868 868 868 868 867 866 866 866 865 865 866 866 867
759 768 778 785 788 792 791 789 789 794 793 787 787 784 795 800 790 792 787 787 801 802 802 803 800 800 802 805 810 814 821 825 827 830 831 834 835 836 838 839 840 841 842 843 845 847 847 849 850 851 851 853 855 855 857 858 859 859 860 862 863 865 865 865 865 866 868 868 869 868 868 868 868 869 870 870 870 871 870 869 869 869 869 869 868 867 867 867 866 866 865 865 865 864 864 865 865
766 773 779 785 786 785 782 782 782 782 787 788 787 785 793 801 797 791 790 796 801 804 805 804 802 801 803 807 812 818 823 826 828 829 831 833 834 835 837 839 841 841 843 844 845 846 847 849 850 851 852 853 854 855 857 857 859 859 860 861 862 864 863 864 864 865 867 868 869 868 868 868 868 868 868 869 869 870 871 870 869 869 869 868 867 866 866 866 865 865 864 864 864 863 863 863 864
769 770 777 785 781 778 773 774 776 776 782 786 786 785 789 796 796 791 797 805 804 810 812 807 810 810 810 812 816 820 823 827 829 829 831 833 834 834 835 838 840 841 842 844 845 847 848 849 851 852 853 853 854 855 856 857 858 858 860 861 861 863 862 863 862 863 865 867 868 867 867 867 867 867 867 868 868 868 869 869 869 868 868 867 866 866 865 865 864 864 863 863 862 862 861 861 862
766 766 781 784 775 776 773 771 774 772 776 785 788 786 789 792 790 791 798 804 804 810 814 812 817 817 815 815 817 822 824 827 829 830 831 833 835 835 836 837 839 841 842 844 845 847 849 850 851 853 853 854 854 855 857 858 858 859 860 860 861 862 863 863 863 863 865 866 866 867 867 867 867 867 867 868 867 868 868 868 867 867 867 866 865 865 864 864 863 863 862 862 861 861 860 860 861
764 766 779 779 771 778 777 772 773 772 775 784 788 789 793 791 787 792 796 803 805 804 805 808 814 815 815 816 818 822 825 827 829 830 831 833 835 835 837 838 840 841 842 844 845 847 849 850 851 853 854 854 855 856 857 859 859 859 860 860 861 861 862 863 864 865 865 866 866 866 866 866 866 866 867 866 867 867 866 866 866 865 865 865 865 864 864 863 862 862 862 861 861 860 860 860 859
768 771 773 772 771 780 780 772 774 774 776 782 787 791 794 790 791 795 797 805 808 800 798 802 808 812 813 815 818 822 824 827 828 829 831 832 834 835 837 838 840 841 842 844 845 847 848 850 851 852 854 854 856 857 858 859 859 860 860 860 860 861 862 862 863 864 865 865 866 866 865 865 865 865 865 865 865 866 865 865 865 864 864 864 864 863 863 862 862 861 861 860 860 860 859 859 858
773 779 772 772 771 778 780 774 776 774 778 786 788 788 787 792 800 798 799 806 803 797 797 801 806 811 813 815 818 821 823 826 827 828 830 832 834 835 837 838 840 841 843 844 845 847 848 849 851 851 853 854 855 856 858 859 859 860 859 860 860 861 861 861 862 862 863 864 864 864 864 864 864 864 864 863 864 864 864 865 864 864 863 863 863 863 862 861 861 860 859 859 859 859 859 859 858
772 782 777 774 772 777 778 775 775 774 780 784 781 784 787 797 804 800 803 805 800 799 799 802 808 811 814 817 818 821 823 825 826 829 830 832 834 835 837 838 840 841 842 844 845 846 847 848 850 851 852 854 855 856 857 858 858 859 859 860 860 860 860 860 861 861 862 862 863 863 863 864 864 863 863 862 862 862 863 863 863 863 862 862 862 862 862 861 860 859 858 858 858 858 858 858 857
772 782 780 776 776 777 776 775 776 776 779 780 781 790 793 795 799 803 807 805 802 802 803 806 810 813 816 818 819 821 823 824 826 828 830 831 833 835 837 838 839 841 842 843 844 845 847 848 849 851 852 853 855 856 856 857 857 858 858 859 859 860 860 860 861 861 861 861 862 863 863 864 864 863 863 862 862 861 862 863 863 864 863 863 863 863 863 862 860 859 857 857 857 857 857 857 856
774 777 779 777 780 778 775 777 777 778 779 781 789 797 797 792 796 808 809 805 805 804 807 809 812 816 817 818 820 821 823 824 825 827 829 831 832 834 836 838 839 840 841 842 843 844 846 847 849 850 851 853 854 855 856 856 857 857 857 858 859 859 860 860 861 861 861 861 862 862 863 863 863 863 863 862 862 862 862 863 863 865 866 865 864 863 863 863 861 859 857 856 856 856 856 856 855
771 773 777 777 781 778 776 780 779 780 781 784 794 801 799 791 797 815 811 803 805 806 811 812 814 818 817 818 819 822 824 824 825 827 829 831 832 834 835 837 838 839 841 842 843 844 845 847 848 849 851 852 853 854 855 855 856 856 856 857 858 858 859 860 860 861 861 861 861 861 862 862 862 862 863 863 863 863 863 863 864 865 865 865 865 864 863 864 862 860 858 856 855 855 855 855 854
769 773 780 780 780 781 779 783 782 783 787 785 789 799 800 795 801 814 810 803 805 808 814 813 815 818 817 818 820 822 824 824 826 827 828 830 831 833 834 836 837 839 840 841 842 843 844 846 847 849 850 851 852 853 854 854 854 855 855 856 856 857 858 858 859 860 860 860 860 860 861 861 861 862 863 863 863 863 863 863 863 863 864 865 866 865 864 864 863 861 858 856 854 854 854 853 853
770 772 787 789 783 788 785 783 782 785 791 782 784 803 808 806 810 810 806 804 805 809 814 814 816 817 818 819 820 822 823 824 826 826 827 829 830 832 833 835 836 838 839 840 842 842 844 845 846 848 849 851 851 852 853 853 854 854 854 854 855 855 856 856 857 858 858 859 859 858 859 860 861 862 863 864 864 864 864 864 863 863 865 865 865 865 864 863 863 860 858 855 853 853 852 852 852
773 773 786 795 795 799 789 783 784 786 791 782 789 816 821 814 811 807 804 805 808 812 814 814 816 816 818 819 820 822 822 824 825 826 827 828 830 831 833 835 836 837 838 839 841 842 843 844 845 847 848 850 850 851 852 852 853 853 853 853 853 854 854 854 854 855 855 856 856 856 857 858 860 862 863 863 862 863 863 863 863 863 863 863 864 863 862 862 861 859 857 855 853 851 851 851 851
778 782 785 793 804 806 789 783 787 790 789 780 791 817 822 814 810 806 804 805 809 814 814 814 815 816 818 819 821 822 822 824 825 825 828 828 830 831 833 835 835 837 837 838 840 841 842 843 845 846 847 849 849 850 850 851 851 851 851 851 852 852 852 853 852 852 852 852 853 855 856 857 858 858 858 858 858 859 859 858 859 860 860 861 861 860 860 859 858 857 855 855 852 851 851 850 850
781 794 798 795 800 804 793 785 786 792 790 780 791 814 819 814 809 804 803 805 808 813 814 813 815 816 817 819 820 821 821 822 824 825 827 829 830 831 832 834 834 836 837 838 839 840 841 842 844 845 846 847 848 849 849 849 850 849 850 850 850 851 851 851 850 850 849 850 852 855 857 856 854 854 853 853 854 853 852 851 853 854 856 857 857 857 857 856 854 853 852 853 852 850 850 850 849
786 792 802 801 800 804 801 790 783 787 792 787 792 809 816 812 807 803 802 805 808 812 813 813 815 817 817 819 819 820 821 821 823 825 826 828 829 831 831 833 834 835 836 837 838 839 840 841 843 844 845 846 847 847 847 848 848 848 848 849 849 849 849 848 847 847 847 849 853 856 855 851 849 848 849 850 849 848 847 846 847 848 851 852 852 853 853 852 850 850 849 850 849 847 847 848 847
798 790 792 797 797 802 804 797 785 784 793 794 793 801 809 809 806 804 803 805 808 811 813 813 814 817 817 818 819 819 821 821 822 823 825 827 828 830 831 832 833 834 835 836 837 838 839 840 842 843 844 845 845 846 846 847 846 846 846 847 848 848 847 846 845 845 845 848 853 856 853 847 845 845 845 846 845 844 843 843 843 844 846 846 846 847 847 847 846 845 844 845 844 843 842 843 842
800 795 793 797 796 798 801 798 789 786 794 798 799 805 809 807 805 805 803 803 808 810 811 811 812 815 817 817 819 819 820 820 820 821 823 825 827 828 829 831 832 833 834 835 836 837 838 839 840 842 843 843 844 844 845 846 845 845 845 845 845 845 845 844 844 844 845 848 850 852 848 843 842 842 842 842 842 841 841 840 840 841 842 842 841 841 841 841 840 839 838 838 839 838 837 838 838
787 788 789 797 799 798 794 790 785 785 797 801 801 806 808 809 807 806 803 802 808 809 808 811 811 813 815 816 817 817 818 818 817 819 822 824 825 827 828 829 830 832 833 834 835 836 837 838 839 840 842 842 843 844 844 844 843 843 843 843 843 843 843 843 843 843 844 845 846 846 843 840 839 839 839 839 839 838 838 838 838 838 839 838 838 837 836 836 835 834 833 834 835 834 834 834 835
776 781 784 787 792 794 788 788 784 781 796 802 798 802 805 807 807 804 803 804 809 810 811 812 812 812 813 814 815 815 816 814 813 817 820 822 824 825 827 828 829 830 832 833 834 835 836 837 838 839 840 841 842 843 844 844 842 841 842 842 842 841 841 841 841 841 841 842 842 841 839 838 836 836 836 836 836 836 835 835 835 835 835 835 835 834 834 833 832 832 831 832 833 833 832 831 833
776 780 784 785 786 787 783 788 787 781 794 801 797 803 805 803 804 802 802 805 809 809 811 813 811 811 811 812 814 813 813 811 812 816 818 820 822 823 825 826 828 829 830 832 833 834 835 835 837 837 839 840 841 841 842 843 842 841 841 841 840 840 840 839 840 840 840 840 840 839 837 837 836 835 835 835 834 834 833 833 833 833 833 832 832 831 831 830 830 830 830 830 831 831 830 830 831
779 779 785 788 784 785 788 788 786 784 795 801 800 805 805 802 801 802 802 803 804 804 805 808 808 810 811 811 812 812 813 812 812 814 815 818 820 821 824 825 826 828 829 831 832 833 834 835 836 836 837 838 839 840 841 841 841 841 840 839 839 839 838 839 839 839 839 839 838 838 837 836 835 834 833 833 832 832 832 831 831 831 831 831 830 829 828 828 828 829 829 829 829 829 828 828 829
779 778 785 787 781 790 799 793 789 787 790 795 799 803 804 804 804 803 801 798 800 802 803 804 806 808 809 808 808 810 812 814 814 813 812 815 818 820 822 824 825 827 828 829 830 832 833 834 835 836 837 838 838 839 839 840 841 840 839 838 838 838 838 838 838 838 838 838 837 837 836 835 834 833 832 831 831 830 830 830 829 829 829 829 829 828 827 827 827 827 828 828 827 826 826 825 826
778 775 780 782 777 784 789 788 791 791 790 790 797 810 812 808 810 807 801 799 801 802 804 806 806 806 806 805 806 807 809 811 812 812 811 813 816 818 820 823 824 825 827 828 829 831 832 833 834 835 836 837 838 838 838 839 839 839 838 837 837 837 837 837 837 837 837 837 837 836 836 835 834 833 832 831 830 829 828 828 827 827 827 827 826 825 825 825 825 825 826 825 825 824 822 822 821
780 776 773 773 774 777 779 785 794 803 808 794 795 824 825 807 807 807 801 803 805 802 804 808 807 806 807 808 807 807 807 808 809 810 811 812 815 817 820 821 823 824 826 828 829 831 832 833 834 835 836 837 837 838 838 838 838 838 838 837 837 836 836 836 836 836 836 836 836 835 835 834 833 832 831 830 829 828 827 826 825 825 825 824 823 823 823 823 823 823 824 824 822 821 820 819 817
783 776 768 771 774 777 783 790 797 807 811 793 790 821 828 809 805 804 799 804 806 803 804 804 804 805 806 807 807 806 807 807 808 808 808 811 813 816 818 820 822 824 825 827 829 831 832 833 834 835 835 836 837 837 837 838 838 838 838 837 837 837 836 836 836 836 835 835 835 834 834 833 832 831 830 829 827 826 825 824 824 823 823 822 822 821 821 822 822 822 822 822 820 820 819 817 815
784 774 769 776 778 781 787 790 794 795 798 797 792 806 823 819 806 795 796 804 805 804 805 802 800 802 802 802 803 803 804 804 806 808 808 809 812 814 816 819 821 822 824 827 829 830 831 832 833 834 835 835 836 836 837 837 837 837 837 837 837 836 836 836 836 835 835 834 834 834 833 832 832 830 829 828 826 825 824 823 822 822 821 821 821 820 820 820 820 820 820 820 819 818 818 816 814
784 773 769 775 777 780 782 784 790 791 802 817 805 802 824 824 802 791 794 804 808 804 801 800 798 797 797 798 799 799 800 801 802 805 806 808 810 812 815 817 820 822 824 826 827 829 830 831 832 833 834 835 835 836 836 836 836 836 836 836 836 836 835 835 835 834 834 834 833 833 832 832 831 830 829 828 826 825 824 822 822 821 820 819 819 818 818 819 820 820 819 819 818 816 815 815 813
778 770 770 775 776 778 781 785 791 799 815 823 806 804 824 821 800 797 801 803 804 799 794 792 792 793 793 793 794 795 796 798 799 801 803 806 808 811 813 816 819 821 823 825 827 828 830 831 832 833 833 834 834 835 835 835 835 835 835 835 835 835 835 834 834 834 833 833 833 832 832 831 831 830 829 828 827 825 824 823 821 821 820 818 818 817 817 818 818 818 817 816 816 814 813 812 811
770 771 777 783 784 784 789 790 794 813 824 813 796 797 816 821 800 790 797 796 790 787 787 787 786 787 789 789 790 791 793 796 796 798 800 803 806 809 812 815 818 820 822 824 826 827 829 830 831 832 833 833 834 834 834 835 834 834 834 834 834 834 834 834 834 833 833 832 832 832 831 831 830 829 828 827 827 825 824 823 822 821 820 818 817 817 816 816 816 816 815 814 813 813 812 811 809
768 775 782 793 800 798 801 802 807 825 827 807 794 792 809 826 806 780 779 779 775 777 780 782 783 783 784 785 786 787 789 792 794 796 798 800 804 808 811 814 816 819 821 822 825 826 828 829 831 832 832 833 833 833 834 834 834 834 834 834 834 834 834 833 833 833 832 832 832 831 831 830 829 828 827 826 826 825 824 823 822 821 820 818 817 816 816 815 814 814 813 812 812 811 811 810 808
771 778 786 803 815 818 823 822 819 823 816 802 797 798 808 814 797 777 772 769 769 771 770 771 775 777 779 781 781 782 785 788 790 794 796 798 802 806 808 812 814 816 819 821 823 825 827 829 830 831 831 832 832 833 833 833 833 833 833 833 833 833 833 833 833 832 832 832 831 831 830 829 828 827 826 825 825 824 823 822 821 820 819 818 817 816 815 814 813 812 811 811 810 810 809 808 806
777 781 790 805 817 832 839 828 821 819 808 799 796 803 812 804 784 773 770 767 764 764 765 765 766 769 773 775 777 779 782 785 787 790 793 796 799 802 806 809 812 814 817 820 822 824 826 828 829 830 830 831 831 832 832 832 832 833 832 832 832 832 832 832 832 832 832 832 831 830 829 828 827 826 825 825 824 823 822 821 820 819 819 817 816 815 814 813 811 810 809 809 808 808 807 805 805
773 768 776 792 799 815 827 818 817 816 806 805 808 810 812 803 785 770 767 767 763 762 763 763 764 766 766 770 773 776 779 782 784 787 790 792 796 799 803 806 810 812 815 818 820 822 825 826 827 828 829 829 830 831 831 831 831 831 831 832 832 832 832 832 832 832 832 831 830 829 829 827 826 825 824 824 823 822 821 820 820 819 817 816 815 814 812 811 810 809 808 807 806 806 805 804 803
771 761 774 788 780 786 804 806 803 803 805 809 811 806 792 780 773 763 763 767 765 766 767 765 769 767 766 770 771 772 776 779 781 784 786 789 793 797 800 804 807 810 813 816 818 821 823 825 826 827 828 828 829 829 829 830 830 830 830 831 831 831 831 831 831 831 831 830 830 829 828 826 825 824 824 823 822 821 820 820 819 818 816 815 814 812 811 810 809 807 806 805 804 804 803 802 802
773 775 784 780 765 771 797 809 801 804 817 809 800 799 784 773 772 762 762 769 765 767 769 767 769 768 769 771 769 770 773 775 778 781 783 787 791 795 797 801 804 808 811 814 816 819 821 823 824 825 826 827 828 828 828 828 828 829 829 829 830 830 830 830 830 830 830 829 828 827 826 825 824 824 823 822 821 820 820 818 818 816 815 814 813 811 810 809 808 806 805 804 803 802 802 800 799
773 782 776 768 771 775 790 809 811 813 821 806 795 800 792 789 788 771 767 773 767 766 767 766 767 768 770 770 768 769 769 772 776 778 781 784 788 792 795 798 802 805 809 812 814 817 819 821 823 824 825 825 826 827 826 827 827 827 828 828 828 828 828 829 829 829 829 828 827 826 825 824 823 823 822 821 820 819 818 817 816 815 814 813 811 810 809 807 806 805 803 803 802 801 800 799 797
764 767 758 767 790 794 795 808 814 815 819 806 796 797 791 789 786 773 772 773 766 764 765 766 766 766 767 767 767 768 768 771 774 776 780 782 785 790 793 796 800 803 807 810 813 816 818 820 821 822 824 824 825 825 825 826 826 826 826 826 826 827 827 827 827 827 827 826 826 825 824 823 822 821 820 819 819 818 817 816 815 814 813 812 810 809 808 806 805 803 802 801 800 800 799 797 795
762 761 758 765 778 785 789 795 797 805 815 808 801 800 789 775 768 768 771 767 763 763 764 765 764 761 762 763 764 766 767 769 771 774 777 779 782 787 791 794 797 801 806 808 811 814 815 817 819 820 822 823 823 824 824 824 824 824 824 824 825 825 825 826 826 826 825 825 824 823 822 822 820 820 819 818 817 816 816 815 814 813 812 810 809 808 806 805 804 802 801 800 799 797 796 795 793
770 773 772 772 773 776 781 784 783 792 807 810 810 809 786 761 757 763 764 760 758 759 760 762 760 757 758 759 760 763 764 766 768 770 773 776 780 784 789 793 796 799 804 806 808 811 812 815 817 819 820 821 822 822 823 823 823 823 823 823 823 823 824 824 824 824 824 823 823 822 821 820 819 818 818 817 816 815 815 814 813 812 810 809 808 806 805 803 802 801 800 799 798 796 795 792 791
760 767 768 769 774 780 791 796 787 784 795 801 807 812 787 756 753 757 755 755 753 752 755 757 756 755 755 755 757 759 760 762 764 766 769 772 777 782 787 791 794 797 801 803 806 808 810 813 815 817 818 819 820 821 821 822 822 822 822 821 822 822 822 822 822 822 822 821 821 820 820 819 818 817 816 816 815 814 813 813 811 811 809 808 806 805 804 802 801 800 799 798 797 795 793 791 789